{"data":{"norad_id":43039,"intl_designator":"2017-078A","name":"ALCOMSAT 1","alt_names":[],"object_type":"PAYLOAD","status":"ACTIVE","operator":null,"country":"ALG","launch_date":"2017-12-10","launch_site_code":"XICLF","launch_vehicle":null,"mission":null,"orbit_class":"UNKNOWN","rcs_meters":null,"size_class":null,"mass_kg":null,"dimensions":null,"purposes":["comms"],"wikipedia_slug":null,"has_3d_model":false,"image_url":null,"decayed_at":null,"tle_current":{"epoch":"2026-09-19T23:31:38.584416Z","epoch_age_seconds":72043,"freshness":"FRESH","line1":"1 43039U 17078A   26262.98030769 -.00000190  00000+0  00000+0 0  9991","line2":"2 43039   0.0453  59.5258 0002081 110.1097 157.3720  1.00273495 32244","mean_motion":1.00273495,"eccentricity":0.0002081,"inclination_deg":0.0453,"raan_deg":59.5258,"arg_perigee_deg":110.1097,"mean_anomaly_deg":157.372,"bstar":0,"rev_number":3224,"period_min":1436.072413752,"perigee_km":35777.341211964,"apogee_km":35794.889973893,"semimajor_km":42164.252592928,"source":"CELESTRAK","updated_at":"2026-09-20T09:00:35.257937Z"}}}